Location: Unspecified
(0.0000°N, 0.0000°E)
Time: 23:53:39
(UTC+00:00)

X-37B - Pass Details

Date: 18 January 2022
Orbit: 334 x 337 km, 45.0° (Epoch: 11 January)

Event Time Altitude Azimuth Distance (km) Brightness Sun altitude
Rises 19:07:33 0° 224° (SW) 2,096 5.6 -13.3°
Reaches altitude 10° 19:09:33 10° 224° (SW) 1,259 4.3 -13.8°
Maximum altitude 19:12:22 82° 310° (NW) 337 0.2 -14.5°
Enters shadow 19:13:26 34° 37° (NE) 572 1.0 -14.7°
